Theta_e
340 339 339 339 339 339 339 338 338 338 338 338 338 337 336 335 335 336 335 336 336 335 335 335 336 333 326 325 329 331 334 336 334 332 329 329 332 333 331 331 332 330
340 340 340 340 340 339 339 339 338 338 338 338 338 338 336 335 335 335 336 336 336 336 336 335 336 335 329 327 329 331 333 334 334 332 329 329 331 331 330 330 331 328
340 340 341 341 341 339 339 339 338 338 338 338 338 338 336 335 335 336 336 336 337 337 336 336 335 336 333 331 331 333 333 334 333 332 331 331 331 330 330 330 330 327
340 341 341 341 340 339 338 338 339 339 339 339 339 337 336 336 336 336 336 336 337 336 336 336 336 335 335 334 333 334 334 334 333 332 332 333 331 330 331 331 330 327
341 341 342 341 340 339 338 338 338 338 339 339 339 338 337 337 335 335 336 336 337 336 336 335 335 335 335 335 334 332 331 333 333 332 334 334 332 331 331 331 330 327
343 342 342 341 340 339 337 337 337 338 339 338 338 338 337 336 334 334 336 337 337 336 336 335 334 334 335 335 335 333 331 332 333 333 334 334 332 331 331 331 330 326
343 343 342 340 340 339 338 337 337 338 338 338 339 338 337 335 335 335 336 337 336 336 336 336 335 335 334 334 334 333 331 331 332 332 332 332 332 331 331 330 329 325
344 343 342 340 340 339 339 338 337 337 339 339 339 339 337 336 336 337 337 337 336 336 336 336 336 334 333 333 333 334 332 330 331 331 331 331 331 332 331 329 327 323
344 343 342 341 340 340 340 338 337 338 338 339 340 339 336 336 337 337 337 336 336 335 334 335 335 334 333 333 333 334 333 332 332 331 330 330 330 331 330 328 325 322
344 343 342 341 340 340 340 338 337 338 338 339 339 338 337 337 337 337 336 336 335 335 334 333 334 334 333 333 333 334 334 333 333 332 331 331 330 329 329 326 324 320
343 343 342 341 341 340 340 338 338 338 338 339 338 337 337 337 337 337 336 335 334 334 334 333 334 334 333 333 334 334 334 333 333 332 330 329 329 328 327 324 321 319
343 343 342 341 341 340 339 338 337 338 338 338 337 337 337 336 336 336 335 334 334 334 334 334 334 334 333 333 334 334 333 332 333 332 329 328 328 327 325 322 320 318
343 343 342 342 341 339 339 337 337 338 338 338 338 337 338 337 336 336 335 335 335 334 334 334 333 333 333 333 333 333 332 333 333 330 326 326 326 324 323 321 320 318
342 342 341 341 341 339 338 337 337 337 338 339 338 337 338 337 336 336 335 335 334 334 333 332 332 333 332 331 332 332 332 332 330 327 324 323 323 323 322 321 319 318
341 341 341 341 340 338 337 337 337 338 338 338 337 337 337 337 336 336 335 334 333 332 331 331 332 332 331 330 329 330 330 329 327 325 324 323 322 322 321 320 320 318
339 340 340 340 339 338 338 337 337 337 337 337 337 336 336 337 336 335 334 333 332 331 330 330 331 331 331 330 328 328 328 327 325 325 325 323 322 321 321 320 320 318
338 338 338 338 338 337 336 337 337 335 335 337 336 335 336 336 335 334 333 332 332 331 330 329 329 330 330 330 329 327 326 326 325 324 323 322 322 321 320 320 319 318
337 336 336 337 337 335 335 337 336 334 336 337 335 335 337 335 333 333 333 332 332 331 329 328 329 329 329 329 327 324 323 323 323 323 323 322 321 321 320 320 319 319
334 332 332 333 333 333 335 336 335 335 337 336 334 336 336 333 332 332 332 332 331 331 330 329 329 329 328 328 326 323 322 321 321 322 323 322 321 320 320 319 319 319
333 331 330 331 332 332 333 333 333 336 337 335 334 336 333 330 332 332 331 330 331 330 329 329 329 328 327 327 326 324 324 322 321 322 323 321 320 320 319 319 318 318
333 332 331 333 336 335 332 332 335 336 335 335 335 333 331 331 332 332 330 330 329 329 329 328 328 328 327 326 325 325 326 324 323 323 322 321 320 319 319 318 318 317
333 333 332 334 337 336 332 333 337 336 334 333 332 330 331 332 332 331 330 329 328 328 328 328 328 328 327 327 326 326 326 324 323 322 321 320 320 319 318 318 317 316
333 333 331 331 332 332 331 334 337 335 333 331 330 331 333 332 331 330 330 329 328 328 328 328 328 328 327 327 327 326 325 324 322 321 320 320 319 319 318 317 317 316
332 332 330 328 329 331 333 335 335 333 332 331 331 334 334 331 330 329 329 328 328 328 328 328 328 328 327 327 327 327 325 323 322 321 320 319 319 319 318 317 316 315
331 330 329 329 332 334 335 335 333 333 333 333 334 334 332 330 328 328 329 329 328 328 327 327 327 328 328 327 327 327 325 323 321 321 320 319 319 319 318 317 316 315
330 331 331 333 335 335 334 333 333 334 335 334 332 331 329 328 328 329 330 330 328 327 326 326 327 328 328 327 327 326 325 324 322 321 320 320 320 319 319 318 317 316
Wind_Speed
25 24 24 23 22 22 22 23 24 24 23 22 21 21 20 20 21 22 22 22 23 22 21 21 20 20 21 21 20 20 19 18 16 16 15 14 16 17 16 15 16 16
26 26 25 24 22 21 21 22 22 23 24 23 22 22 21 21 21 21 22 23 24 24 23 23 22 23 22 20 19 19 19 19 18 18 16 15 15 17 16 16 16 15
28 28 27 26 23 21 21 21 22 23 23 23 23 22 21 21 20 21 21 22 23 24 25 24 23 25 24 21 19 19 19 20 19 18 17 15 15 17 16 16 16 14
30 29 28 26 24 22 20 21 22 23 24 24 23 22 21 19 19 21 22 22 23 24 25 23 23 26 26 23 19 19 19 19 19 18 18 17 17 16 16 16 15 13
30 29 27 26 24 22 20 21 22 23 23 23 22 22 20 18 20 22 23 22 23 25 24 21 20 24 25 23 19 18 18 20 20 19 19 19 18 16 15 15 14 12
31 30 28 25 24 22 20 20 21 21 22 22 21 22 21 19 21 22 21 21 23 24 23 19 18 19 21 21 19 18 19 21 22 21 21 20 18 16 15 14 13 12
32 31 29 26 24 23 20 19 19 20 20 20 20 22 21 19 20 20 20 21 22 22 23 21 18 16 17 18 17 17 18 19 21 21 20 19 17 15 14 14 13 12
32 31 29 26 25 23 20 18 18 19 19 19 20 21 21 20 20 20 19 21 21 21 21 21 17 15 16 16 15 17 18 18 19 19 18 17 16 14 14 13 12 12
31 30 29 27 25 23 20 17 18 18 17 17 18 20 21 21 21 19 19 20 20 19 18 18 17 16 16 17 17 18 18 18 19 20 18 16 14 13 13 13 12 11
31 30 29 28 26 23 19 17 17 17 16 16 17 19 20 21 21 20 19 19 18 17 17 17 17 17 17 18 19 19 20 20 20 20 19 15 11 11 12 12 11 11
31 30 29 28 26 22 19 17 16 16 15 14 16 18 19 19 19 19 18 18 16 17 19 19 18 18 18 18 19 20 22 21 20 21 20 14 9 9 11 10 9 9
31 30 28 27 24 20 18 17 16 14 13 13 15 18 18 17 18 18 17 16 16 18 21 21 19 20 20 19 20 21 21 19 19 21 18 10 5 7 9 9 8 7
30 28 27 25 21 18 17 17 16 14 14 15 16 17 18 16 16 16 16 16 16 17 19 19 19 21 21 20 21 20 20 20 19 17 12 5 4 7 9 9 7 6
28 26 24 22 19 18 18 17 16 14 15 16 16 16 17 15 14 14 14 13 12 12 13 14 16 19 20 19 20 21 22 21 19 16 12 8 7 8 8 8 8 7
25 23 22 20 18 18 18 17 15 15 14 14 13 14 15 14 12 12 10 8 8 9 10 10 11 14 16 17 19 21 22 19 16 15 14 12 9 7 7 8 9 9
22 22 21 20 19 19 18 16 15 14 13 12 11 12 13 12 10 9 7 6 6 7 7 8 9 11 13 15 18 20 20 16 15 13 13 13 8 3 4 6 8 9
20 21 20 20 20 18 18 16 13 13 13 11 11 11 11 11 10 8 6 5 5 6 6 7 9 9 11 14 14 14 12 12 15 13 10 8 5 3 3 5 6 7
19 20 21 21 20 18 17 15 13 13 12 10 10 10 10 11 10 8 6 5 5 5 5 7 8 8 9 9 8 9 10 12 14 11 7 5 5 5 4 4 6 7
17 18 18 18 17 16 16 15 14 15 13 11 10 9 10 11 9 7 6 5 3 4 5 7 8 5 4 5 10 12 12 14 14 10 6 5 5 4 4 4 5 7
15 15 14 14 14 15 14 14 17 17 11 8 10 10 11 9 7 7 6 3 1 2 3 5 5 1 5 7 10 12 11 12 13 11 7 5 4 3 4 4 6 8
14 15 14 14 17 17 12 12 16 15 10 9 12 11 9 7 6 7 5 1 1 1 2 4 2 5 10 9 9 9 10 12 13 11 8 6 5 4 4 5 6 7
14 15 14 15 19 19 16 14 14 12 11 13 13 10 7 7 7 6 4 2 1 0 1 3 2 6 9 9 8 9 11 13 12 10 8 7 6 5 4 5 6 7
15 15 15 16 20 22 22 20 15 11 12 13 11 9 8 8 7 6 5 4 3 1 1 1 3 6 8 8 8 10 11 12 11 9 8 7 6 5 5 6 6 6
15 15 15 16 19 22 23 19 13 10 12 11 10 9 9 9 8 7 5 4 2 3 3 2 4 9 10 9 9 9 9 10 10 9 9 8 7 7 6 6 6 5
15 14 14 17 20 20 17 13 11 14 15 14 12 11 11 10 9 6 5 4 4 5 5 5 6 9 12 12 11 10 8 9 10 10 10 10 9 8 8 8 6 5
14 13 14 18 19 15 10 11 13 16 18 16 15 14 12 10 8 5 6 8 8 7 7 9 8 8 10 12 12 11 9 9 11 12 12 11 9 9 10 9 7 6
Wind_Direction
233 235 237 240 246 251 252 252 252 253 255 258 260 263 263 262 260 258 259 260 260 261 262 260 255 251 247 243 245 250 254 251 245 246 249 252 259 266 271 276 281 285
234 237 239 241 245 251 253 254 255 255 257 260 264 267 267 264 261 262 264 265 264 264 262 259 256 252 249 247 249 251 247 244 244 245 246 248 255 263 269 275 279 283
234 238 238 240 246 252 255 256 256 256 259 261 264 267 268 265 263 265 267 266 266 265 263 261 259 257 254 250 250 251 243 237 241 245 243 243 250 258 265 271 277 283
232 236 237 241 248 254 256 257 257 258 259 261 264 268 268 266 264 262 262 262 264 265 263 263 264 263 260 255 250 250 248 242 241 242 241 241 246 252 259 267 275 284
232 235 236 241 248 252 254 257 258 259 260 263 266 268 266 261 257 256 257 261 265 268 267 266 269 269 266 262 257 254 251 244 240 240 240 241 244 248 256 266 276 283
232 234 236 241 246 250 255 258 259 259 261 264 267 268 265 258 255 257 261 265 267 271 273 269 269 271 271 268 264 258 248 236 232 234 235 237 242 249 258 270 279 282
232 233 234 239 244 249 257 261 259 258 261 266 269 270 269 267 266 268 269 270 269 270 273 272 273 277 278 273 264 255 247 236 231 232 233 237 243 252 265 275 281 280
232 232 233 238 243 248 257 262 259 258 263 268 271 272 273 273 274 275 274 274 274 271 271 277 284 285 280 273 261 251 245 238 233 231 232 238 246 258 272 278 280 275
232 232 233 238 243 247 256 262 260 260 265 271 273 273 274 274 273 275 277 279 278 272 268 275 282 281 276 269 261 252 244 235 229 227 228 233 245 264 275 277 277 269
231 232 234 238 243 247 255 262 262 263 268 272 274 273 274 276 276 278 283 284 280 274 270 272 278 280 277 270 263 255 244 234 229 227 225 225 239 264 273 273 271 262
231 233 235 238 242 246 253 261 262 264 269 270 270 270 271 274 276 281 286 286 282 279 277 277 279 281 278 270 262 249 235 228 227 226 222 216 228 262 271 268 261 251
233 234 236 239 243 246 252 258 260 263 268 268 268 270 273 276 278 283 288 288 287 289 288 287 286 284 282 276 264 247 232 226 228 228 224 218 233 267 268 260 252 244
235 236 238 240 242 245 248 252 256 261 267 269 270 274 277 280 283 287 292 293 293 295 298 299 295 286 280 275 267 251 233 228 225 217 210 218 262 268 261 256 255 253
235 236 239 241 241 241 243 246 250 256 263 267 270 275 280 282 286 291 296 299 300 301 305 308 301 286 271 260 256 245 231 224 215 196 182 198 234 245 248 256 265 263
233 235 237 238 236 235 237 242 246 250 259 267 269 274 279 282 285 290 296 302 306 308 311 315 308 294 276 254 238 227 221 214 202 187 181 193 213 229 238 248 254 251
232 233 233 231 229 229 233 237 239 244 256 264 265 270 279 286 290 294 296 298 306 313 325 331 320 304 288 265 239 225 220 206 185 184 192 196 203 229 253 254 254 250
231 230 227 225 223 223 228 230 231 237 245 253 260 263 272 283 288 293 294 295 308 320 339 345 333 316 294 274 251 232 221 189 168 175 192 195 197 215 253 274 273 267
228 227 224 222 218 217 223 226 228 232 232 239 253 255 259 269 274 285 296 295 306 325 346 353 344 325 295 269 222 181 171 166 166 175 186 196 213 223 242 271 276 276
225 224 221 217 214 217 222 222 221 226 228 234 242 247 256 263 269 286 296 287 298 333 358 358 348 328 280 224 186 178 181 182 187 200 212 217 229 240 260 274 275 281
219 220 215 210 212 214 218 223 224 223 221 224 232 239 247 253 265 282 280 272 320 359 19 9 359 177 176 182 190 201 206 197 197 210 218 217 224 241 259 272 278 286
221 220 212 213 217 214 214 226 227 221 212 214 225 230 231 238 255 262 253 214 82 19 37 30 44 165 178 186 200 212 215 205 199 201 205 204 206 218 242 262 276 290
223 220 219 223 220 216 218 217 210 213 223 222 219 212 209 228 242 234 214 184 166 197 21 42 102 168 184 197 208 216 216 209 198 192 196 200 202 214 239 257 276 298
220 224 232 228 216 214 219 213 202 212 224 213 198 196 213 231 225 204 192 181 170 203 311 16 161 179 187 199 212 217 216 211 203 196 197 199 204 219 240 257 278 301
224 233 235 226 217 216 216 211 204 210 212 199 191 206 228 228 206 187 176 165 173 229 240 207 185 192 194 199 210 219 219 214 210 207 203 202 211 225 239 256 274 289
228 231 229 224 217 209 207 211 212 210 207 202 203 216 225 212 189 169 162 184 230 237 205 174 176 195 204 207 210 218 223 218 212 210 208 208 215 228 240 250 261 270
215 216 220 218 206 197 213 228 216 207 204 203 210 219 212 189 170 170 194 214 231 225 190 170 168 186 207 212 213 219 225 223 218 216 214 213 219 232 241 245 252 260